Location: Burla
(50.9568°N, 10.4983°E)
Time: 08:18:32
(UTC+00:00)

SL-12 R/B(2) - Pass Details

Date: 18 January 2026
Orbit: 1171 x 2178 km, 63.4° (Epoch: 15 February)

Event Time Altitude Azimuth Distance (km) Brightness Sun altitude
Rises 05:33:50 0° 226° (SW) 4,224 6.5 -15.0°
Reaches altitude 10° 05:36:25 10° 228° (SW) 3,339 6.0 -14.6°
Maximum altitude 05:44:35 82° 316° (NW) 1,523 4.4 -13.3°
Drops below altitude 10° 05:54:45 10° 45° (NE) 4,096 7.1 -11.8°
Sets 05:58:16 0° 47° (NE) 5,229 7.7 -11.3°
